Date String (YYYY-MM-DD hh:mm:ss) UTC,Instrument flags,Ambient pressure (hPa),Sample flow (lpm),Bypass flow (lpm),Sample temperature (°C),Ambient temperature (°C),ASC tube jacket temperature (°C),LED temperature (°C),Box temperature (°C),Sample RH (%),Span deviation,Mass concentration (μg/m³),Mass concentration (μg/m³),Mass concentration (μg/m³)
DateTimeUTC,F1_M11,P_M11,Q1_M11,Q2_M11,T1_M11,T2_M11,T3_M11,T4_M11,T5_M11,U1_M11,ZSPAN_M11,X2_M11,X0_M11,X1_M11
2023-04-11 23:00:00,,0828.4,5.00,0.00,29.8,27.1,00.0,38.2,31.2,06.1,0000.0,0003.01,0007.44,0001.82
2023-04-11 23:01:00,,0828.3,5.01,0.00,29.8,27.4,00.0,38.2,31.3,06.1,0000.0,0002.97,0007.55,0001.83
2023-04-11 23:02:00,,0828.3,4.99,0.00,29.8,27.7,00.0,38.2,31.3,06.1,0000.0,0002.98,0007.84,0001.84
2023-04-11 23:03:00,,0828.3,5.00,0.00,29.8,27.9,00.0,38.2,31.4,05.9,0000.0,0002.93,0007.78,0001.83
2023-04-11 23:04:00,,0828.4,5.00,0.00,29.8,28.1,00.0,38.2,31.4,05.9,0000.0,0002.92,0007.77,0001.82
2023-04-11 23:05:00,,0828.3,5.00,0.00,29.9,28.3,00.0,38.2,31.5,05.9,0000.0,0002.92,0007.99,0001.83
2023-04-11 23:06:00,,0828.3,5.00,0.00,29.9,28.5,00.0,38.2,31.6,06.0,0000.0,0002.93,0007.82,0001.82
2023-04-11 23:07:00,,0828.3,5.00,0.00,30.0,28.6,00.0,38.3,31.6,06.1,0000.0,0002.88,0007.40,0001.80
2023-04-11 23:08:00,,0828.3,5.00,0.00,30.0,28.7,00.0,38.3,31.7,06.2,0000.0,0002.87,0007.32,0001.81
2023-04-11 23:09:00,,0828.3,4.99,0.00,30.0,28.8,00.0,38.3,31.7,06.2,0000.0,0002.90,0007.33,0001.80
2023-04-11 23:10:00,,0828.3,5.00,0.00,30.1,28.9,00.0,38.3,31.8,06.3,0000.0,0002.94,0007.52,0001.80
2023-04-11 23:11:00,,0828.3,5.00,0.00,30.1,28.9,00.0,38.4,31.8,06.2,0000.0,0003.01,0008.04,0001.81
2023-04-11 23:12:00,,0828.3,4.98,0.00,30.1,28.3,00.0,38.3,31.7,06.1,0000.0,0003.03,0008.02,0001.81
2023-04-11 23:13:00,,0828.2,5.01,0.00,30.0,26.5,00.0,38.3,31.3,06.0,0000.0,0003.00,0007.75,0001.80
2023-04-11 23:14:00,,0828.2,5.00,0.00,29.9,25.8,00.0,38.2,31.1,06.2,0000.0,0003.03,0007.52,0001.81
2023-04-11 23:15:00,,0828.1,5.00,0.00,29.9,26.0,00.0,38.1,31.1,06.3,0000.0,0003.14,0007.76,0001.84
2023-04-11 23:16:00,,0828.2,5.00,0.00,29.8,26.3,00.0,38.1,31.1,06.4,0000.0,0003.15,0007.50,0001.85
2023-04-11 23:17:00,,0828.2,4.99,0.00,29.7,26.6,00.0,38.1,31.1,06.3,0000.0,0003.15,0008.02,0001.86
2023-04-11 23:18:00,,0828.2,5.01,0.00,29.7,27.0,00.0,38.2,31.2,06.3,0000.0,0003.15,0008.73,0001.87
2023-04-11 23:19:00,,0828.1,5.00,0.00,29.8,27.4,00.0,38.2,31.3,06.5,0000.0,0003.16,0008.76,0001.87
2023-04-11 23:20:00,,0828.2,5.00,0.00,29.8,27.6,00.0,38.2,31.4,06.5,0000.0,0003.17,0008.78,0001.88
2023-04-11 23:21:00,,0828.2,4.99,0.00,29.8,27.9,00.0,38.2,31.4,06.3,0000.0,0003.15,0008.69,0001.88
2023-04-11 23:22:00,,0828.2,5.00,0.00,29.8,28.1,00.0,38.2,31.4,06.3,0000.0,0003.13,0008.26,0001.89
2023-04-11 23:23:00,,0828.2,5.00,0.00,29.9,28.3,00.0,38.2,31.5,06.1,0000.0,0003.12,0008.08,0001.90
2023-04-11 23:24:00,,0828.2,5.00,0.00,29.9,28.4,00.0,38.2,31.6,06.4,0000.0,0003.13,0008.10,0001.91
2023-04-11 23:25:00,,0828.2,5.00,0.00,29.9,28.5,00.0,38.2,31.6,06.4,0000.0,0003.16,0008.58,0001.92
2023-04-11 23:26:00,,0828.2,5.01,0.00,30.0,28.6,00.0,38.3,31.7,06.4,0000.0,0003.11,0008.68,0001.90
2023-04-11 23:27:00,,0828.2,5.01,0.00,30.0,28.7,00.0,38.3,31.7,06.5,0000.0,0003.10,0008.67,0001.90
2023-04-11 23:28:00,,0828.2,5.00,0.00,30.0,28.8,00.0,38.3,31.8,06.3,0000.0,0003.09,0007.93,0001.88
2023-04-11 23:29:00,,0828.2,5.00,0.00,30.1,28.9,00.0,38.3,31.8,06.2,0000.0,0003.11,0006.97,0001.87
2023-04-11 23:30:00,,0828.2,4.99,0.00,30.1,28.5,00.0,38.3,31.7,06.3,0000.0,0003.09,0006.91,0001.87
2023-04-11 23:31:00,,0828.2,4.99,0.00,30.0,26.6,00.0,38.2,31.4,06.2,0000.0,0003.05,0007.51,0001.86
2023-04-11 23:32:00,,0828.2,5.02,0.00,29.9,25.7,00.0,38.1,31.2,06.2,0000.0,0003.05,0007.75,0001.86
2023-04-11 23:33:00,,0828.2,5.00,0.00,29.9,25.8,00.0,38.1,31.1,06.3,0000.0,0003.10,0007.85,0001.85
2023-04-11 23:34:00,,0828.2,5.00,0.00,29.8,26.1,00.0,38.1,31.1,06.5,0000.0,0003.08,0007.85,0001.83
2023-04-11 23:35:00,,0828.2,5.00,0.00,29.7,26.5,00.0,38.1,31.1,06.4,0000.0,0002.98,0007.70,0001.81
2023-04-11 23:36:00,,0828.2,5.00,0.00,29.7,26.9,00.0,38.1,31.2,06.3,0000.0,0002.96,0008.00,0001.79
2023-04-11 23:37:00,,0828.2,5.00,0.00,29.7,27.2,00.0,38.1,31.3,06.5,0000.0,0002.98,0007.72,0001.80
2023-04-11 23:38:00,,0828.2,5.00,0.00,29.8,27.5,00.0,38.1,31.3,06.5,0000.0,0003.01,0007.75,0001.80
2023-04-11 23:39:00,,0828.2,5.01,0.00,29.8,27.8,00.0,38.2,31.3,06.6,0000.0,0003.01,0007.76,0001.79
2023-04-11 23:40:00,,0828.1,5.00,0.00,29.8,28.0,00.0,38.2,31.4,06.5,0000.0,0003.01,0007.88,0001.80
2023-04-11 23:41:00,,0828.2,5.00,0.00,29.8,28.2,00.0,38.2,31.5,06.3,0000.0,0003.00,0007.89,0001.80
2023-04-11 23:42:00,,0828.2,5.00,0.00,29.9,28.3,00.0,38.2,31.5,06.3,0000.0,0003.02,0007.39,0001.83
2023-04-11 23:43:00,,0828.2,5.00,0.00,29.9,28.5,00.0,38.2,31.6,06.4,0000.0,0003.04,0007.22,0001.84
2023-04-11 23:44:00,,0828.2,5.00,0.00,29.9,28.6,00.0,38.2,31.6,06.4,0000.0,0003.03,0007.36,0001.84
2023-04-11 23:45:00,,0828.2,5.00,0.00,30.0,28.7,00.0,38.2,31.7,06.4,0000.0,0003.06,0007.67,0001.84
2023-04-11 23:46:00,,0828.2,5.00,0.00,30.0,28.8,00.0,38.3,31.7,06.4,0000.0,0003.14,0008.01,0001.86
2023-04-11 23:47:00,,0828.2,5.00,0.00,30.0,28.9,00.0,38.3,31.7,06.5,0000.0,0003.17,0007.76,0001.87
2023-04-11 23:48:00,,0828.2,5.00,0.00,30.1,28.5,00.0,38.3,31.7,06.4,0000.0,0003.17,0007.99,0001.87
2023-04-11 23:49:00,,0828.1,5.00,0.00,30.0,26.7,00.0,38.2,31.4,06.4,0000.0,0003.16,0008.27,0001.86
2023-04-11 23:50:00,,0828.1,5.02,0.00,29.9,25.5,00.0,38.1,31.1,06.6,0000.0,0003.15,0008.21,0001.88
2023-04-11 23:51:00,,0828.0,5.00,0.00,29.8,25.6,00.0,38.0,31.1,06.5,0000.0,0003.18,0008.31,0001.88
2023-04-11 23:52:00,,0828.1,5.00,0.00,29.7,26.0,00.0,38.1,31.0,06.6,0000.0,0003.28,0008.87,0001.90
2023-04-11 23:53:00,,0828.1,5.01,0.00,29.7,26.3,00.0,38.1,31.0,06.5,0000.0,0003.29,0008.88,0001.90
2023-04-11 23:54:00,,0828.0,5.00,0.00,29.7,26.7,00.0,38.1,31.1,06.8,0000.0,0003.29,0008.85,0001.91
2023-04-11 23:55:00,,0828.1,5.00,0.00,29.7,27.1,00.0,38.1,31.2,06.7,0000.0,0003.30,0009.74,0001.91
2023-04-11 23:56:00,,0828.1,5.00,0.00,29.7,27.4,00.0,38.1,31.2,06.4,0000.0,0003.35,0010.11,0001.93
2023-04-11 23:57:00,,0828.1,5.00,0.00,29.7,27.7,00.0,38.1,31.3,06.4,0000.0,0003.35,0009.83,0001.93
2023-04-11 23:58:00,,0828.2,5.00,0.00,29.7,27.9,00.0,38.1,31.3,06.5,0000.0,0003.33,0009.80,0001.92
2023-04-11 23:59:00,,0828.1,4.99,0.00,29.8,28.1,00.0,38.1,31.4,06.4,0000.0,0003.30,0010.18,0001.91
